Temp
-17 -17 -17 -17 -17 -17 -17 -17 -17 -16 -16 -16 -16 -16 -16 -16 -16 -16 -16 -16 -16 -16 -16 -15 -15 -15 -15 -15 -16 -16 -15 -15 -15 -15 -15 -15 -15 -15 -15 -15 -15 -15
-17 -17 -17 -17 -17 -17 -17 -17 -17 -17 -17 -17 -16 -16 -16 -16 -16 -16 -16 -16 -16 -16 -16 -16 -15 -16 -16 -15 -15 -16 -16 -15 -15 -15 -15 -15 -15 -15 -15 -15 -15 -15
-17 -17 -17 -17 -18 -17 -17 -17 -17 -17 -17 -17 -17 -17 -17 -17 -16 -16 -16 -16 -16 -16 -16 -16 -16 -16 -16 -16 -15 -15 -15 -16 -15 -15 -15 -15 -15 -15 -15 -15 -15 -15
-18 -18 -18 -18 -18 -18 -18 -18 -18 -18 -18 -17 -17 -17 -17 -17 -17 -17 -16 -16 -16 -16 -15 -16 -16 -16 -16 -16 -15 -15 -15 -15 -15 -15 -15 -15 -15 -15 -15 -15 -15 -15
-18 -19 -19 -19 -19 -19 -19 -19 -18 -18 -18 -18 -18 -18 -18 -17 -17 -17 -17 -16 -16 -16 -16 -16 -16 -16 -16 -15 -15 -15 -15 -15 -15 -15 -16 -16 -16 -16 -16 -15 -15 -15
-19 -19 -19 -19 -19 -19 -19 -19 -19 -19 -19 -19 -18 -18 -18 -18 -18 -17 -17 -17 -17 -16 -16 -16 -16 -16 -16 -15 -15 -15 -15 -16 -16 -16 -16 -16 -16 -16 -16 -15 -15 -15
-19 -19 -19 -19 -20 -20 -20 -20 -20 -19 -19 -19 -19 -19 -19 -19 -18 -18 -18 -17 -17 -17 -17 -16 -16 -16 -16 -16 -16 -15 -16 -16 -16 -16 -16 -16 -16 -16 -16 -15 -15 -15
-19 -19 -20 -20 -20 -20 -20 -20 -20 -20 -20 -19 -19 -19 -19 -19 -19 -19 -18 -18 -18 -17 -17 -17 -16 -16 -16 -16 -16 -16 -16 -16 -16 -16 -16 -16 -16 -15 -16 -15 -15 -15
-19 -19 -20 -20 -20 -20 -20 -20 -20 -20 -20 -20 -20 -20 -19 -19 -19 -19 -19 -18 -18 -18 -17 -17 -17 -17 -16 -16 -16 -16 -16 -16 -16 -16 -16 -16 -16 -15 -15 -15 -15 -15
-19 -19 -19 -20 -20 -20 -20 -20 -20 -20 -20 -20 -20 -20 -20 -20 -19 -19 -19 -19 -19 -18 -18 -18 -18 -17 -17 -16 -16 -16 -16 -16 -16 -16 -16 -16 -16 -15 -15 -15 -15 -15
-19 -19 -19 -20 -20 -20 -20 -20 -20 -20 -20 -20 -20 -20 -20 -20 -20 -19 -19 -19 -19 -19 -18 -18 -18 -18 -17 -17 -16 -16 -16 -16 -16 -16 -16 -16 -16 -16 -15 -15 -15 -15
-19 -19 -19 -19 -20 -20 -20 -20 -20 -20 -20 -20 -20 -20 -20 -20 -20 -20 -19 -19 -19 -19 -19 -18 -18 -18 -18 -17 -17 -17 -17 -17 -16 -16 -16 -16 -16 -16 -16 -16 -16 -16
-19 -19 -19 -19 -20 -20 -20 -20 -20 -20 -20 -20 -20 -20 -20 -20 -20 -20 -20 -19 -19 -19 -19 -19 -18 -18 -18 -18 -17 -17 -17 -17 -17 -17 -16 -16 -16 -16 -16 -16 -16 -16
-19 -19 -19 -19 -20 -20 -20 -20 -20 -20 -20 -20 -20 -20 -20 -20 -20 -20 -20 -20 -19 -19 -19 -19 -19 -18 -18 -18 -18 -17 -17 -17 -17 -17 -17 -16 -16 -16 -16 -16 -16 -16
-19 -19 -19 -19 -20 -20 -20 -20 -20 -20 -20 -20 -21 -21 -20 -20 -20 -20 -20 -20 -20 -19 -19 -19 -19 -19 -18 -18 -18 -18 -18 -17 -17 -17 -17 -17 -16 -16 -16 -16 -16 -16
-19 -19 -19 -19 -20 -20 -20 -20 -20 -20 -20 -20 -20 -21 -21 -20 -20 -20 -20 -20 -20 -20 -19 -19 -19 -19 -19 -19 -18 -18 -18 -18 -17 -17 -17 -17 -17 -16 -16 -16 -16 -16
-19 -19 -19 -19 -20 -20 -20 -20 -20 -20 -20 -20 -20 -20 -21 -21 -20 -20 -20 -20 -20 -20 -20 -19 -19 -19 -19 -19 -19 -18 -18 -18 -18 -17 -17 -17 -17 -17 -17 -17 -16 -16
-19 -19 -19 -19 -19 -20 -20 -20 -20 -20 -20 -20 -20 -20 -20 -21 -21 -21 -20 -20 -20 -20 -20 -20 -20 -19 -19 -19 -19 -19 -19 -18 -18 -18 -17 -17 -17 -17 -17 -17 -17 -16
-19 -19 -19 -19 -19 -20 -20 -20 -20 -20 -20 -20 -20 -20 -20 -21 -21 -21 -21 -20 -20 -20 -20 -20 -20 -20 -20 -20 -19 -19 -19 -19 -18 -18 -18 -18 -17 -17 -17 -17 -17 -16
-19 -19 -19 -19 -19 -20 -20 -20 -20 -20 -20 -20 -20 -20 -20 -20 -21 -21 -21 -21 -21 -20 -20 -20 -20 -20 -20 -20 -20 -19 -19 -19 -19 -18 -18 -18 -18 -18 -17 -17 -17 -16
-19 -19 -19 -19 -19 -19 -20 -20 -20 -20 -20 -20 -20 -20 -20 -21 -21 -21 -21 -21 -21 -21 -21 -20 -20 -20 -20 -20 -20 -20 -19 -19 -19 -19 -18 -18 -18 -18 -18 -18 -17 -17
-19 -19 -19 -19 -19 -19 -20 -20 -20 -20 -20 -20 -20 -20 -20 -21 -21 -21 -21 -21 -21 -21 -21 -21 -20 -20 -20 -20 -20 -20 -20 -19 -19 -19 -19 -18 -18 -18 -18 -18 -18 -18
-19 -19 -19 -19 -19 -19 -20 -20 -20 -20 -20 -20 -20 -21 -21 -21 -21 -21 -21 -21 -21 -21 -21 -21 -21 -21 -21 -20 -20 -20 -20 -19 -19 -19 -19 -19 -19 -18 -18 -18 -18 -18
-19 -19 -19 -19 -19 -19 -20 -20 -20 -20 -20 -21 -21 -21 -21 -21 -21 -21 -21 -21 -21 -21 -21 -21 -21 -21 -21 -21 -21 -20 -20 -20 -20 -19 -19 -19 -19 -19 -18 -18 -18 -18
-19 -19 -19 -19 -19 -20 -20 -20 -20 -20 -20 -21 -21 -21 -21 -21 -21 -21 -21 -21 -21 -21 -21 -21 -21 -21 -21 -21 -21 -21 -20 -20 -20 -20 -20 -20 -19 -19 -18 -18 -18 -18
-19 -19 -19 -19 -19 -20 -20 -20 -20 -20 -21 -21 -21 -21 -21 -21 -21 -21 -21 -21 -21 -21 -21 -21 -21 -21 -21 -22 -21 -21 -21 -21 -20 -20 -20 -20 -20 -19 -19 -18 -18 -18
Height
5751 5750 5749 5748 5746 5745 5744 5744 5743 5742 5741 5740 5740 5740 5740 5740 5740 5741 5741 5741 5742 5743 5744 5745 5746 5746 5747 5748 5749 5750 5751 5752 5753 5754 5755 5756 5757 5757 5757 5758 5758 5759
5746 5744 5743 5741 5740 5739 5738 5737 5737 5736 5735 5734 5734 5734 5733 5734 5734 5735 5735 5735 5736 5737 5738 5739 5741 5741 5741 5742 5743 5744 5746 5747 5748 5749 5750 5751 5752 5753 5753 5754 5754 5755
5741 5739 5737 5735 5733 5732 5731 5731 5730 5729 5729 5728 5728 5728 5727 5727 5728 5728 5729 5729 5729 5732 5733 5734 5735 5735 5736 5737 5738 5739 5741 5742 5743 5744 5745 5746 5747 5748 5749 5749 5750 5750
5736 5733 5731 5729 5727 5726 5725 5724 5723 5722 5722 5722 5722 5722 5722 5721 5722 5722 5723 5723 5723 5726 5728 5728 5729 5730 5730 5731 5732 5734 5736 5737 5738 5739 5740 5741 5742 5743 5744 5745 5745 5746
5731 5728 5726 5724 5721 5720 5719 5718 5717 5716 5715 5715 5715 5715 5715 5715 5716 5716 5717 5717 5718 5720 5721 5722 5723 5724 5725 5726 5727 5729 5730 5731 5732 5733 5735 5736 5736 5737 5739 5740 5740 5741
5727 5724 5722 5719 5717 5715 5714 5712 5711 5710 5709 5708 5708 5708 5708 5709 5709 5710 5710 5711 5712 5713 5714 5716 5717 5718 5719 5721 5722 5723 5724 5725 5727 5728 5730 5730 5731 5732 5733 5734 5735 5736
5724 5721 5718 5716 5713 5711 5709 5708 5706 5705 5704 5703 5702 5702 5702 5702 5703 5703 5704 5705 5705 5706 5707 5709 5710 5711 5712 5714 5715 5716 5718 5719 5721 5723 5724 5725 5726 5727 5728 5729 5730 5731
5721 5718 5715 5713 5710 5707 5705 5703 5702 5700 5699 5698 5697 5697 5696 5696 5696 5697 5697 5698 5699 5700 5701 5702 5703 5704 5705 5707 5708 5709 5711 5713 5714 5716 5719 5720 5721 5722 5723 5723 5724 5725
5718 5715 5712 5709 5707 5704 5701 5699 5697 5695 5694 5693 5692 5691 5691 5690 5690 5691 5691 5692 5693 5693 5694 5696 5697 5697 5698 5700 5701 5703 5705 5706 5707 5710 5713 5715 5715 5716 5717 5718 5719 5720
5715 5712 5709 5706 5704 5701 5698 5695 5693 5691 5689 5688 5687 5686 5685 5685 5684 5685 5685 5686 5686 5687 5688 5689 5690 5691 5692 5693 5695 5696 5698 5699 5701 5703 5707 5709 5709 5710 5711 5712 5714 5715
5712 5709 5706 5703 5700 5698 5695 5692 5689 5686 5684 5683 5682 5680 5680 5679 5679 5679 5679 5680 5680 5681 5682 5682 5683 5684 5685 5686 5688 5690 5691 5692 5694 5698 5701 5702 5703 5704 5705 5706 5708 5710
5709 5706 5703 5700 5697 5694 5692 5689 5686 5682 5680 5678 5677 5676 5675 5674 5674 5673 5674 5674 5674 5675 5675 5676 5677 5678 5679 5680 5682 5684 5685 5686 5688 5692 5694 5695 5697 5698 5699 5701 5702 5704
5706 5703 5700 5697 5694 5691 5688 5686 5683 5680 5677 5674 5673 5671 5670 5669 5669 5668 5668 5668 5668 5669 5669 5670 5671 5672 5674 5675 5676 5678 5679 5680 5682 5685 5687 5689 5691 5692 5693 5696 5697 5698
5703 5700 5697 5694 5691 5688 5685 5682 5679 5677 5674 5671 5669 5667 5666 5665 5664 5663 5663 5663 5662 5663 5663 5664 5665 5666 5668 5669 5671 5672 5673 5674 5676 5678 5680 5683 5685 5686 5688 5690 5692 5692
5700 5697 5693 5690 5687 5684 5682 5679 5676 5673 5671 5668 5666 5664 5662 5660 5659 5658 5658 5657 5657 5657 5657 5658 5659 5660 5662 5663 5665 5666 5668 5669 5670 5672 5675 5677 5679 5681 5682 5683 5685 5686
5697 5694 5690 5687 5684 5681 5678 5676 5673 5670 5667 5665 5663 5661 5658 5656 5655 5654 5653 5652 5652 5651 5651 5652 5653 5655 5656 5657 5658 5660 5662 5663 5665 5667 5669 5671 5672 5674 5675 5676 5678 5679
5694 5691 5687 5684 5681 5678 5675 5672 5669 5667 5664 5661 5659 5657 5655 5653 5651 5649 5648 5647 5646 5646 5646 5646 5647 5649 5650 5651 5652 5654 5656 5658 5659 5661 5663 5664 5666 5668 5669 5670 5672 5673
5691 5687 5684 5681 5678 5675 5672 5669 5666 5663 5661 5658 5655 5653 5652 5649 5647 5645 5643 5642 5641 5641 5640 5641 5642 5643 5644 5645 5647 5648 5650 5652 5654 5655 5657 5658 5660 5662 5664 5665 5667 5668
5687 5684 5681 5677 5674 5671 5668 5665 5662 5659 5657 5654 5652 5649 5647 5645 5643 5641 5639 5638 5637 5636 5635 5635 5636 5637 5638 5640 5641 5643 5645 5647 5648 5650 5652 5653 5654 5656 5658 5660 5661 5662
5683 5680 5677 5674 5670 5667 5664 5662 5659 5656 5653 5650 5648 5646 5643 5641 5639 5637 5635 5634 5632 5631 5630 5630 5630 5631 5633 5634 5636 5637 5639 5641 5642 5644 5646 5647 5648 5650 5652 5654 5656 5656
5680 5677 5673 5670 5667 5664 5661 5658 5655 5652 5649 5647 5644 5642 5639 5637 5635 5633 5631 5630 5628 5627 5626 5625 5625 5626 5627 5628 5630 5631 5633 5635 5637 5638 5640 5642 5643 5645 5647 5649 5650 5651
5676 5673 5670 5666 5663 5660 5657 5654 5651 5648 5645 5643 5640 5637 5635 5633 5630 5628 5627 5626 5624 5623 5621 5620 5620 5620 5622 5622 5624 5626 5627 5629 5631 5632 5634 5636 5638 5640 5641 5643 5645 5645
5673 5669 5666 5663 5659 5656 5653 5650 5647 5643 5641 5638 5635 5633 5630 5628 5626 5624 5622 5621 5620 5618 5617 5616 5615 5615 5616 5617 5618 5620 5621 5623 5625 5627 5629 5631 5633 5635 5636 5637 5639 5640
5669 5666 5662 5659 5656 5652 5649 5646 5642 5639 5636 5633 5631 5628 5626 5624 5622 5620 5618 5616 5615 5614 5613 5611 5610 5610 5611 5611 5613 5614 5615 5617 5619 5621 5623 5625 5627 5629 5630 5632 5634 5635
5665 5662 5658 5655 5652 5648 5645 5642 5638 5635 5632 5628 5625 5623 5621 5619 5617 5615 5613 5611 5610 5609 5608 5607 5606 5605 5605 5606 5607 5608 5609 5611 5613 5615 5617 5619 5621 5623 5624 5626 5628 5629
5661 5658 5654 5651 5648 5644 5641 5637 5633 5630 5627 5624 5620 5618 5616 5614 5612 5610 5608 5607 5605 5604 5603 5602 5601 5600 5600 5601 5601 5602 5603 5605 5606 5608 5610 5613 5615 5617 5618 5620 5621 5622
Wind_Speed
33 34 34 35 36 38 40 41 41 42 43 44 45 45 44 44 44 45 47 47 46 44 43 42 42 42 40 38 36 35 34 32 31 30 29 29 28 27 26 25 25 25
35 36 37 37 37 38 39 40 41 42 43 44 44 46 46 45 44 44 46 49 49 47 46 44 43 43 42 41 39 38 36 35 34 33 32 32 31 30 29 29 28 27
37 38 38 39 39 39 40 41 41 42 43 44 44 45 46 47 47 46 45 48 50 49 47 46 45 45 44 43 42 40 38 37 36 36 36 35 34 33 32 31 30 30
35 36 37 38 40 40 40 41 42 42 42 43 45 45 45 46 46 46 44 44 47 49 49 48 47 46 45 44 44 43 40 39 38 38 38 37 36 35 33 32 32 32
33 33 33 35 37 38 39 40 40 42 42 42 43 44 44 44 44 44 44 43 45 48 50 49 48 48 46 45 45 44 43 41 40 40 40 39 38 37 35 34 33 33
31 30 30 30 32 34 36 37 38 40 41 41 42 43 43 43 43 43 45 45 46 48 49 48 48 49 49 48 46 46 46 44 42 41 41 40 40 38 38 37 35 35
30 29 28 28 29 30 31 33 35 37 38 40 40 41 42 42 42 43 44 45 47 48 48 47 47 47 49 49 49 50 49 47 45 42 42 42 41 39 39 39 38 36
30 29 29 29 29 29 30 30 31 33 35 37 38 39 40 40 41 42 43 44 45 47 48 48 47 47 48 48 49 50 50 50 49 46 43 43 42 41 41 40 40 39
30 29 29 29 29 30 31 31 31 31 32 33 36 37 38 39 39 40 42 43 44 45 47 47 47 47 48 48 47 47 46 45 48 47 44 43 44 44 44 43 40 39
29 29 28 28 28 29 31 32 31 31 31 31 32 34 36 37 38 38 40 43 43 44 45 46 46 46 47 47 47 46 44 42 44 44 43 43 44 44 44 43 41 40
29 29 29 28 27 27 28 30 31 31 31 31 31 32 34 35 36 37 38 40 42 43 43 44 45 45 46 46 46 46 46 45 44 43 41 43 44 43 43 43 43 42
30 30 29 28 27 27 27 28 29 30 31 31 30 31 32 34 35 36 37 38 40 42 43 43 43 44 46 46 45 45 46 47 47 45 44 43 43 43 44 45 46 45
31 31 31 30 28 27 27 27 27 28 29 30 30 30 31 32 33 34 36 37 38 40 42 43 43 43 45 46 45 44 44 46 47 47 47 46 45 46 46 46 47 47
32 32 32 32 31 29 27 27 27 27 27 28 29 29 29 30 31 33 34 35 37 39 40 42 43 43 43 44 45 45 44 45 46 46 46 46 47 49 49 46 46 47
32 33 33 33 33 31 29 28 28 28 28 28 28 29 29 28 29 30 32 33 35 37 39 40 42 43 43 43 44 44 44 44 45 45 44 43 44 46 48 48 47 47
32 33 33 34 34 33 32 30 28 28 28 28 28 28 28 29 28 28 30 31 32 35 38 39 40 42 43 43 42 42 43 43 45 45 44 43 42 43 45 46 45 45
32 33 33 34 34 34 34 32 30 29 29 29 29 27 27 28 28 27 28 29 30 32 35 37 38 40 42 43 42 41 41 41 43 44 44 45 45 45 45 45 44 44
32 33 33 34 34 34 34 34 33 31 29 29 30 29 27 27 28 28 27 27 28 30 32 35 36 38 40 43 43 41 40 39 40 41 41 43 45 46 45 43 41 40
32 33 34 34 35 35 35 35 35 33 31 30 30 30 29 27 27 27 27 27 27 28 30 33 34 35 37 41 42 42 39 38 38 39 38 38 41 43 44 42 38 35
33 33 34 34 35 36 36 36 36 35 33 31 30 30 30 29 27 27 27 26 26 26 28 31 33 33 34 37 41 42 40 38 38 39 39 38 37 38 41 43 41 40
33 33 34 35 35 36 37 37 37 36 35 33 31 30 30 30 29 27 27 26 26 25 25 28 31 32 32 34 38 41 42 41 39 38 39 40 38 36 36 39 42 45
34 34 34 35 35 36 37 38 38 37 36 35 34 31 30 30 30 29 27 26 26 25 24 26 29 31 31 31 34 38 42 44 42 39 37 39 39 37 35 34 37 41
34 34 34 35 35 36 37 38 39 39 38 37 35 33 31 30 30 30 28 27 26 25 24 24 26 28 30 30 30 34 39 43 45 42 37 36 37 37 36 35 35 36
34 35 35 35 36 36 37 38 38 39 40 38 37 35 33 30 30 30 30 28 27 26 25 24 24 26 28 30 29 30 35 40 44 44 41 38 36 35 35 37 37 37
35 35 35 35 36 36 37 38 39 39 40 40 38 36 34 32 30 30 30 29 28 27 25 24 24 25 26 28 29 29 31 35 40 43 43 41 40 37 36 36 38 39
35 36 36 36 37 37 38 39 39 39 40 40 39 38 36 33 31 30 30 30 28 28 27 25 24 24 25 27 29 29 29 31 35 39 42 42 41 41 40 39 38 37
Wind_Direction
292 288 283 278 274 271 268 266 265 264 264 264 262 262 262 258 256 255 255 254 253 252 251 253 255 254 252 250 249 250 250 251 253 253 252 251 252 254 255 256 258 258
296 292 287 283 278 275 272 269 266 264 263 262 262 261 261 260 260 260 259 255 252 250 249 250 254 254 252 251 249 249 251 253 255 255 255 254 256 258 259 260 259 258
300 295 290 285 281 277 274 271 269 267 264 263 262 261 261 261 261 261 262 256 250 249 249 248 251 252 253 251 249 249 250 253 255 256 256 256 257 260 263 264 262 260
306 300 294 288 284 280 276 273 271 269 268 265 264 263 262 262 261 260 261 257 249 248 249 249 250 252 253 252 250 250 251 252 254 255 256 256 257 260 263 265 264 261
314 307 300 293 288 284 281 277 274 272 271 268 266 265 263 262 261 259 258 256 252 249 248 250 251 251 252 251 251 251 251 252 253 254 255 256 257 259 261 263 264 263
321 317 312 305 297 291 287 283 279 276 274 272 270 267 265 264 262 259 257 255 255 252 251 252 252 250 250 250 249 250 250 250 252 252 253 255 256 258 261 262 263 262
322 319 320 318 312 304 297 291 285 280 277 275 273 271 268 265 263 261 258 256 255 254 254 253 252 251 250 249 248 249 249 249 250 250 250 253 255 257 260 261 261 260
323 318 317 319 319 315 310 302 294 287 281 277 275 273 271 267 264 260 259 259 257 256 255 254 252 252 252 251 249 248 250 250 248 247 248 252 255 257 258 259 260 258
326 320 315 314 316 317 315 311 303 295 288 281 276 273 272 270 266 261 258 258 259 258 256 255 253 252 251 252 250 248 248 247 245 245 246 249 253 255 255 256 257 257
329 326 321 316 315 317 317 315 310 302 294 287 281 275 272 271 269 265 259 257 257 257 257 256 255 252 251 251 249 248 247 244 243 243 245 247 250 253 253 254 255 255
332 330 327 322 318 318 319 319 315 309 300 292 287 280 275 272 271 269 263 258 256 255 256 256 255 253 251 250 249 247 246 245 244 244 245 246 248 250 250 252 254 254
334 332 330 328 324 321 321 321 320 315 307 299 292 286 280 276 273 271 268 262 257 254 253 254 254 253 251 251 249 247 246 246 246 245 245 244 246 248 248 248 251 252
336 334 332 331 329 326 323 322 321 320 315 307 300 293 287 282 277 274 271 267 262 256 253 252 252 252 251 250 249 248 246 246 247 247 246 244 244 247 248 248 250 253
336 335 334 332 331 329 325 322 320 319 319 315 308 301 294 287 282 278 275 271 267 262 256 251 250 251 251 250 249 248 246 245 246 246 247 246 246 248 250 249 250 252
337 335 334 332 331 328 326 323 319 318 317 316 314 309 302 293 286 282 279 275 271 266 261 255 250 249 251 251 250 248 246 245 244 245 245 246 247 248 250 250 250 250
337 335 333 332 330 328 326 324 321 317 315 313 313 312 308 301 293 285 281 278 274 269 265 261 254 249 249 251 251 250 248 246 244 244 243 243 243 244 245 247 248 249
335 334 333 331 330 328 327 325 322 318 315 312 310 309 309 306 300 292 285 280 276 271 267 264 260 253 249 249 251 251 249 248 246 244 244 243 243 243 244 246 249 251
334 333 332 331 330 328 328 326 324 320 316 312 309 307 306 305 304 300 292 284 278 273 268 264 262 258 252 249 249 250 249 248 246 243 244 245 245 244 245 247 249 251
333 332 331 330 329 328 327 326 324 322 318 312 309 306 304 302 302 302 299 293 285 276 269 264 262 260 255 250 248 249 249 248 246 242 242 245 245 243 242 242 243 244
331 331 330 329 328 327 326 325 323 322 320 315 309 305 304 301 299 299 300 299 294 284 274 266 261 259 258 252 248 247 247 247 246 243 242 243 245 244 241 239 240 241
329 329 329 328 327 326 325 324 323 321 320 317 312 307 303 300 298 296 296 298 298 292 282 271 262 258 257 254 249 246 244 245 246 244 242 242 243 244 242 239 240 242
328 328 328 327 327 326 324 323 322 321 320 318 315 310 304 300 298 297 294 293 295 296 290 279 267 259 255 254 251 246 243 244 246 244 241 240 241 243 243 240 240 243
327 327 327 326 326 325 324 322 320 320 319 318 315 312 307 301 298 297 294 291 291 293 292 286 275 263 255 253 252 249 244 243 246 246 243 239 240 242 243 241 239 242
326 326 326 326 325 323 322 320 319 318 318 317 315 313 310 304 298 296 295 291 289 289 290 288 281 269 258 252 251 250 247 244 245 246 244 241 239 238 239 240 240 241
324 325 325 324 323 322 320 318 317 316 316 316 315 313 311 307 301 295 293 292 288 285 285 286 283 274 262 253 250 249 248 245 244 245 245 243 240 238 236 236 236 237
324 324 324 323 322 320 318 316 315 314 314 314 314 313 311 308 303 297 292 291 288 284 282 282 282 277 267 255 249 248 248 247 244 243 243 242 241 240 239 236 236 236